Other Public Products
Issued by NWS Grand Forks, ND

Home | Current Version | Previous Version | Graphics & Text | Print | Product List | Glossary On
Versions: 1 2 3 4 5 6 7 8 9 10 11 12 13 14 15 16 17 18 19 20 21 22 23 24 25 26 27 28 29 30 31 32 33 34 35 36 37 38 39 40 41 42 43 44 45 46 47 48 49 50
000
FPUS83 KFGF 302231
OPUFGF
PRAIRIE TO PINES WEATHER ROUNDUP
NATIONAL WEATHER SERVICE EASTERN NORTH DAKOTA/GRAND FORKS ND
500 PM CDT SAT APR 30 2016

 **SATELLITE DATA USED TO AUGMENT SKY COVER AT AUTOMATED STATIONS**
 *****  WEATHER ACROSS EASTERN NORTH DAKOTA  *****

CITY           SKY/WX    TMP DP  RH WIND       PRES   REMARKS
GRAND FORKS    MOSUNNY   61  26  26 NE18G28   30.20S
GRAND FORKS AF SUNNY     61  26  27 E21       30.20S
GRAND CITY NWS NOT AVBL
BUXTON           N/A     61  28  29 NE17        N/A
DEVILS LAKE    SUNNY     60  29  30 NE21G26   30.22F
FARGO          CLOUDY    64  22  20 E14G28    30.12F
WAHPETON ARPT  CLOUDY    61  27  27 NE14      30.10S
$$

 *****  WEATHER ACROSS CENTRAL AND WESTERN NORTH DAKOTA  *****

CITY           SKY/WX    TMP DP  RH WIND       PRES   REMARKS
JAMESTOWN      MOSUNNY   61  25  25 NE22G29   30.15S
BISMARCK       SUNNY     60  29  30 E20G25    30.18F
MINOT          SUNNY     66  27  23 NE8G22    30.23S
MINOT AFB      SUNNY     63  30  28 E12G20    30.22F
GARRISON         N/A     61  27  27 NE13G24   30.22S
WILLISTON      MOSUNNY   63  28  26 E18       30.24F
DICKINSON      PTSUNNY   58  29  33 E14G22    30.18S
HETTINGER      PTSUNNY   57  30  35 E22G29    30.18S
$$

 *****  OTHER OBSERVATIONS NORTHEAST NORTH DAKOTA  *****

CITY           SKY/WX    TMP DP  RH WIND       PRES   REMARKS
WALHALLA       FAIR      61  28  29 NE17G26   30.24S
LANGDON        FAIR      61  30  31 NE18G26   30.24R
CAVALIER       FAIR      61  32  33 NE12G22   30.23S
GRAFTON        FAIR      61  30  31 NE18G24   30.23R
CANDO          FAIR      63  27  25 NE18G25   30.25S
FORT TOTTEN      N/A     60  29  30 NE8       29.95S
ROLLA          FAIR      59  25  27 NE15G23   30.26S
RUGBY          FAIR      61  28  29 NE10      30.23S
 ***** THE ABOVE OBSERVATIONS ARE NON NWS ARE NOT QUALITY
        CONTROLLED AND MAY MIS-REPORT RAIN FOR SNOW...
$$

 *****  OTHER OBSERVATIONS SOUTHEAST NORTH DAKOTA *****

CITY           SKY/WX    TMP DP  RH WIND       PRES   REMARKS
COOPERSTOWN    NOT AVBL
VALLEY CITY    FAIR      59  27  29 NE22G32   30.16S
OAKES            N/A    N/A N/A N/A MISG        N/A
GWINNER        FAIR      63  30  29 NE21      30.11R
SHEYENNE NWR     N/A     62  27  26 E15       29.95S
BUFFALO          N/A     61  20  20 NE20G32     N/A
WYNDMERE         N/A     63  30  29 NE15        N/A
 ***** THE ABOVE OBSERVATIONS ARE NON NWS ARE NOT QUALITY
       CONTROLLED AND MAY MIS-REPORT RAIN FOR SNOW...
$$

  *****  WEATHER ACROSS NORTHERN MINNESOTA  *****

CITY           SKY/WX    TMP DP  RH WIND       PRES   REMARKS
FLAG ISLAND    SUNNY     54  27  35 NE14      30.24F
WARROAD        SUNNY     54  32  43 NE13      30.25S
ROSEAU         SUNNY     57  30  35 NE22G29   30.23S
HALLOCK        SUNNY     63  21  20 E14       30.21S
THF RVR FALLS  SUNNY     57  27  30 NE15G23   30.22R
HALSTAD        NOT AVBL
FOSSTON        SUNNY     59  27  29 NE16G25   30.18S
BAUDETTE       SUNNY     57  25  29 NE12      30.21F
WASKISH        SUNNY     57  30  35 NE13G22   30.20R
CROOKSTON      SUNNY     61  28  29 E15G26    30.20S
$$
  *****  WEATHER ACROSS CENTRAL AND WEST MINNESOTA  *****

CITY           SKY/WX    TMP DP  RH WIND       PRES   REMARKS
BEMIDJI        MOSUNNY   57  30  36 E13       30.17R
PARK RAPIDS    PTSUNNY   58  27  30 E15G21    30.13S
WADENA         MOSUNNY   57  30  35 E14G21    30.10S
DETROIT LAKES  CLOUDY    59  28  31 E14G21    30.14R
MOORHEAD       CLOUDY    63  25  23 NE18      30.13S
FERGUS FALLS   CLOUDY    59  30  33 E17G23    30.07S
ELBOW LAKE     FAIR      57  32  37 NE16G24   30.09S
MORRIS MN      CLOUDY    57  36  44 E20G25    30.06S
STAPLES        MOSUNNY   55  28  35 E13G22    30.12S
WHEATON        CLOUDY    61  36  39 NE14G21   30.09S
$$
  *****  WEATHER ELSEWHERE ACROSS MINNESOTA  *****

CITY           SKY/WX    TMP DP  RH WIND       PRES   REMARKS
DULUTH         MOSUNNY   47  26  44 E22G30    30.21S
INTRNTL FALLS  SUNNY     56  26  31 E13G23    30.21F
ELY            MOSUNNY   52  25  35 E9G18     30.21S
CLOQUET        CLOUDY    46  25  42 E20G28    30.20R
BRAINERD       PTSUNNY   52  26  36 E14G21    30.15R
HIBBING        CLOUDY    51  30  44 SE15G23   30.18R
ALEXANDRIA     MOSUNNY   57  33  40 E21G26    30.09S
SAINT CLOUD    CLOUDY    56  35  45 NE20G29   30.07S
MINNEAPOLIS    CLOUDY    57  34  41 E15       30.03F
$$

  *****  WEATHER ACROSS SOUTH DAKOTA  *****

CITY           SKY/WX    TMP DP  RH WIND       PRES   REMARKS
SIOUX FALLS    CLOUDY    45  39  79 E24G31    29.95R
BROOKINGS      PTSUNNY   50  35  56 NE17G28   29.98R
WATERTOWN      CLOUDY    53  34  48 NE20G33   30.02S
HURON          CLOUDY    51  36  56 NE17G29   30.02R
SISSETON         N/A     59  33  37 E20G29    30.06S
ABERDEEN       PTSUNNY   60  34  37 NE22G29   30.08R
MITCHELL       LGT RAIN  46  42  86 NE18      29.99R
PIERRE         CLOUDY    54  36  50 NE24G32   30.03S
MOBRIDGE       PTSUNNY   60  32  34 NE20G32   30.09R
RAPID CITY     CLOUDY    51  32  48 NE22G30   30.09S
$$

  *****  SOME WEATHER IN NEARBY STATES *****

CITY           SKY/WX    TMP DP  RH WIND       PRES   REMARKS
GLASGOW MT     PTSUNNY   64  29  26 E14G25    30.25S
GREAT FALLS MT CLOUDY    51  37  58 E9        30.24R
CHEYENNE WY    LGT SNOW  33  30  88 N18G24    30.05R VSB 3/4 WCI  22
SCOTTSBLUFF NE LGT RAIN  38  32  79 NW13      30.05R
OMAHA NE       CLOUDY    50  48  93 E10       29.78R
DES MOINES IA  LGT RAIN  51  47  86 E18       29.81R FOG
DAVENPORT IA   LGT RAIN  46  44  93 NE17      29.87R FOG
CHICAGO IL     LGT RAIN  44  42  93 NE20      29.91F FOG
EAU CLAIRE WI  CLOUDY    57  33  40 E12       30.03R
LA CROSSE WI   LGT RAIN  50  39  66 E15G21    30.03R
$$

  *****  SOME NATIONAL WEATHER *****

CITY           SKY/WX    TMP DP  RH WIND       PRES   REMARKS
LA GUARDIA NY  PTSUNNY   58  36  43 S14       30.21S
RALEIGH NC     CLOUDY    63  57  81 E8        30.13R
ATLANTA GA     TSTM      69  62  78 SW16G38   29.93R
NEW ORLEANS LA TSTM      72  68  87 S24G31    29.81S
OKLAHOMA CITY  MOSUNNY   71  47  42 NW17      29.78F
ALBUQUERQUE NM PTSUNNY   63  32  31 MISG      29.82F
SALT LAKE CITY PTSUNNY   61  27  27 NE13      29.90F
LOS ANGELES CA MOSUNNY   64  49  57 W15       29.81F
BOISE ID       PTSUNNY   69  34  27 NW22G36   29.99F
SEATTLE WA     MOSUNNY   65  40  39 N13       30.34F
$$

*** WEATHER ACROSS MANITOBA...SASKATCHEWAN AND ONTARIO ***
                ***ONTARIO***

CITY           SKY/WX    TMP DP  RH WIND       PRES   REMARKS
GERALDTON      MOSUNNY   48  27  43 NE9       30.31R
THUNDER BAY    MOSUNNY   54  27  35 E16       30.25F
SIOUX LOOKOUT  SUNNY     54  25  32 NE8G18    30.28S
TORONTO        CLOUDY    55  25  30 SE10      30.13S
BIG TROUT LK   SUNNY     46  27  46 S6        30.36S
PICKLE LAKE    MOSUNNY   48  27  43 N8        30.32S
DRYDEN         SUNNY     55  25  30 NE12G21   30.26F
KENORA         SUNNY     57  25  28 E14       30.26F
$$
                *** MANITOBA***

CITY           SKY/WX    TMP DP  RH WIND       PRES   REMARKS
BRANDON        MOSUNNY   61  27  27 NE18G26   30.29F
DAUPHIN        SUNNY     63  27  25 E13       30.33F
ISLAND LAKE    PTSUNNY   61  27  27 W6        30.30F
PILOT MOUND      N/A     59  25  27 NE18G26     N/A
THE PAS        CLOUDY    66  25  20 VRB2      30.31F
THOMPSON       MOSUNNY   70  27  19 W12G20    30.26F
WINNIPEG       SUNNY     61  28  29 NE18G25   30.28F
LYNN LAKE      SUNNY     68  23  18 SW13G20   30.23F
CHURCHILL      PTSUNNY   37  28  70 E12       30.39F
GILLAM         PTSUNNY   57  27  30 VRB5      30.33F
$$
                ***SASKATCHEWAN***

CITY           SKY/WX    TMP DP  RH WIND       PRES   REMARKS
ESTEVAN        MOSUNNY   64  25  22 E15G22    30.27S
KINDERSLEY     PTSUNNY   64  30  27 SW12G18   30.26F
LLOYDMINSTER   CLOUDY    61  34  36 SW12G17   30.25S
PRINCE ALBERT  PTSUNNY   66  23  19 SW12G18   30.28F
REGINA         MOSUNNY   63  25  23 VRB5G26   30.29S
YORKTON        SUNNY     64  27  24 E13G21    30.31F   C1F1C2F2C3F3C4F4C5F5C6F6C7F7C8F8C9F9CaFaCbFbCcFcCdFdCe!



USA.gov is the U.S. government's official web portal to all federal, state and local government web resources and services.